User: anonymous   Login
Location: Fort Wayne
(41.1310°N, 85.1290°W)
Time: 15:44:23
(UTC-04:00)
Language:

BREEZE-M DEB (TANK) - Orbit

View from above orbital plane
View from above orbital plane
View from above satellite
View from above satellite

Ground track
Ground track

The orbit data is extracted from the following two-line orbital elements,

1 27821U 03024B   16210.33246204  .00003130  00000-0  32462-3 0  9990
2 27821  49.5688 204.8844 4950526 143.1003 264.3324  5.73499260261823
Epoch (UTC): 28 July 2016 07:58:44
Eccentricity: 0.4950526
inclination: 49.5688°
perigee height: 279 km
apogee height: 13332 km
right ascension of ascending node: 204.8844°
argument of perigee: 143.1003°
revolutions per day: 5.73499260
mean anomaly at epoch: 264.3324°
orbit number at epoch: 26182

The dashed part of the orbit path shows where the satellite is in the earth's shadow,  

DLR